Wetbulb
40.61 40.59 40.81 41.26 41.88 42.06 42.59 43.34 43.78 43.76 43.56 43.30 43.12 43.13 44.08 44.51 45.19 48.39 49.72 49.98 49.39 49.44 49.33 47.37 46.75 47.15 46.45 45.29 42.60 41.98 40.43 39.87 38.78 41.60 31.83 31.72 31.70 31.65 31.68 32.77 33.05 33.08 33.35
39.11 39.60 39.78 40.34 40.49 40.64 41.19 41.73 41.59 42.04 41.91 41.93 41.57 41.38 42.34 43.24 43.69 44.33 46.13 47.10 47.06 46.86 47.42 47.51 47.06 46.13 44.79 45.49 42.46 40.21 40.22 39.85 39.17 38.46 29.87 28.68 29.73 30.96 31.01 30.78 31.29 32.30 31.50
36.87 37.24 37.90 37.97 38.22 38.64 39.17 39.64 39.64 39.77 39.67 39.49 39.35 39.37 40.41 41.66 44.20 45.65 46.06 45.92 46.00 46.33 46.50 45.29 45.73 43.50 42.60 43.13 42.83 39.81 39.15 38.66 38.36 37.93 29.74 29.19 28.97 30.07 29.19 30.08 30.35 30.69 31.20
35.13 34.95 34.77 34.99 35.57 36.00 36.27 36.45 36.47 36.71 36.77 37.00 37.18 37.71 38.15 38.95 40.94 43.17 44.02 43.98 44.27 44.87 44.97 45.11 44.10 43.22 42.68 42.08 41.26 40.54 38.55 37.11 36.05 35.64 29.87 27.95 28.40 28.84 28.76 27.29 27.06 28.97 28.41
34.07 33.68 33.48 33.57 33.57 33.01 32.54 32.29 32.48 32.71 34.43 34.41 34.26 34.52 34.86 36.22 38.35 39.46 40.27 41.10 41.39 41.72 41.88 41.68 42.35 41.55 39.80 42.13 40.58 40.17 37.35 35.10 33.01 33.08 32.05 28.44 27.03 25.93 26.15 27.67 26.45 26.16 27.08
32.87 32.43 32.43 31.16 30.81 30.77 30.70 30.90 30.96 31.33 31.55 32.12 32.38 32.45 33.10 35.69 38.64 40.15 39.97 38.64 37.85 38.00 38.69 38.95 37.87 35.83 37.42 39.54 40.86 40.97 37.86 34.80 33.61 32.92 32.50 29.05 28.56 27.98 27.79 26.32 25.88 23.84 22.14
30.59 31.04 30.51 30.13 29.90 30.13 30.01 30.09 30.45 30.71 30.40 30.48 30.47 30.71 31.81 32.20 36.74 38.41 38.55 37.30 37.08 36.77 36.55 35.97 34.52 34.27 34.12 35.93 37.60 39.40 39.20 38.69 39.05 34.65 33.20 31.38 29.35 27.76 27.47 25.99 26.10 25.78 25.89
30.01 29.66 29.10 29.22 28.72 28.48 28.20 28.30 29.00 29.51 29.19 29.52 29.92 29.40 29.48 30.51 35.55 36.74 36.96 35.35 35.22 35.04 34.68 34.61 34.61 34.37 33.01 32.95 33.29 33.40 34.54 34.79 35.74 36.17 33.89 32.48 31.22 29.72 29.07 28.50 27.48 27.81 25.99
29.70 29.38 28.80 28.03 27.12 26.85 26.24 26.93 27.54 28.07 28.22 28.11 27.70 26.93 25.93 27.39 32.62 34.36 34.49 32.12 33.52 33.32 33.10 33.09 33.37 33.16 33.31 35.27 32.44 31.79 32.35 32.24 34.87 36.57 34.50 34.34 34.22 33.22 31.15 29.60 26.16 25.31 21.92
28.66 28.79 27.90 26.93 25.16 24.89 25.90 26.01 25.10 24.96 26.65 26.01 25.99 24.66 23.77 24.01 30.14 33.22 33.72 32.41 31.96 31.94 30.94 30.76 31.09 32.47 33.27 34.02 32.73 31.34 30.12 29.52 30.19 30.57 31.16 32.56 33.15 32.36 33.49 30.47 28.31 25.91 22.20
26.25 26.23 25.37 25.00 23.27 23.71 23.66 21.45 24.01 23.38 23.14 21.94 24.46 23.32 22.63 22.20 23.80 31.91 33.37 31.90 31.43 31.29 30.56 29.29 29.16 31.88 33.61 33.71 34.47 31.55 30.48 30.13 31.97 30.31 30.23 30.15 30.28 30.64 30.19 29.68 29.96 28.37 23.69
23.63 24.26 22.89 22.48 22.23 24.34 20.37 21.26 19.41 20.09 26.92 27.45 26.88 24.42 22.91 22.24 26.50 29.93 32.04 32.91 33.31 31.27 29.25 28.10 28.62 31.03 32.30 34.05 33.56 33.76 33.81 31.58 29.76 28.38 27.56 27.08 27.75 28.12 27.64 27.49 27.90 27.58 27.40
23.83 25.02 25.29 24.31 22.48 22.25 19.55 20.76 21.02 19.33 25.94 26.92 26.08 24.23 23.02 22.64 21.75 29.56 30.76 31.88 33.05 29.35 29.05 28.99 30.71 31.39 32.03 32.97 33.98 33.81 31.60 29.13 28.13 27.10 26.33 26.25 27.21 26.94 25.50 22.89 21.38 21.16 20.78
15.07 18.93 23.01 24.07 24.50 25.83 20.87 21.34 19.60 18.36 19.60 21.80 21.16 20.39 20.76 20.38 21.11 24.48 29.22 30.93 31.33 29.64 29.63 28.30 29.57 31.01 31.86 31.85 31.42 32.12 29.61 28.63 28.07 27.21 26.43 25.35 25.35 24.62 22.80 21.31 18.01 18.02 16.02
13.51 15.60 17.22 21.90 25.02 26.30 26.52 21.60 21.94 20.95 20.42 19.69 17.19 21.54 23.77 18.65 19.28 29.51 30.90 26.20 25.53 27.31 23.29 22.04 22.39 27.13 28.71 29.14 29.26 27.96 28.15 28.10 27.05 26.34 25.18 23.83 23.45 22.86 20.89 20.49 18.59 17.20 16.03
10.57 14.30 16.46 17.45 20.08 24.26 25.18 24.87 26.83 30.00 31.48 32.22 32.84 31.84 27.81 27.78 29.70 30.63 32.02 31.95 31.28 30.14 23.99 23.33 24.04 25.23 26.94 27.37 27.59 26.97 27.07 26.83 26.61 26.34 24.93 23.81 22.44 21.82 19.64 18.81 17.05 16.65 15.87
6.87 10.20 12.72 15.17 17.21 20.47 23.44 23.63 22.16 23.28 30.94 30.51 30.24 30.69 32.46 30.97 30.41 31.74 32.60 32.59 32.33 28.26 22.44 24.80 24.38 25.00 24.70 25.47 25.98 25.93 24.86 24.99 25.37 25.68 24.47 23.38 22.51 21.71 19.19 17.09 16.07 15.18 13.47
4.26 7.54 9.44 12.36 16.31 20.19 23.77 24.34 23.20 19.43 18.20 19.25 25.09 27.79 32.45 32.68 32.78 31.45 32.84 30.72 28.60 25.73 21.87 23.25 23.37 23.94 24.77 25.33 24.65 23.67 22.00 21.76 21.46 21.57 21.70 21.72 20.60 18.07 15.70 15.03 14.52 12.23 11.60
5.22 8.00 10.55 13.64 17.13 20.81 23.71 22.48 22.05 20.74 20.06 20.11 20.98 23.23 22.40 27.62 26.56 26.13 25.80 20.55 19.85 18.48 18.19 17.28 17.75 18.26 18.86 18.87 19.03 18.06 17.77 16.58 16.49 15.25 13.94 12.90 13.01 11.89 9.52 11.58 11.96 11.17 9.74
6.51 9.15 13.55 15.95 18.32 20.62 20.58 20.79 20.00 18.93 18.20 18.43 18.75 17.78 18.58 18.26 14.64 12.45 11.55 12.43 12.66 11.34 11.66 11.02 11.18 10.92 11.05 11.57 11.66 11.83 11.34 10.48 9.65 9.49 8.02 8.73 8.54 9.74 7.44 7.41 8.46 7.22 5.93
8.94 12.44 15.14 16.09 17.21 19.21 19.40 19.46 18.35 17.09 15.18 13.91 14.78 19.88 19.47 12.02 9.19 7.76 6.56 5.14 4.83 5.17 6.52 6.36 5.10 5.08 5.57 6.29 7.06 6.84 5.87 4.57 3.43 4.27 3.98 4.16 3.89 2.67 5.75 8.84 6.76 4.98 1.90
10.18 12.86 13.35 13.15 14.30 14.78 15.30 15.65 14.80 13.49 12.23 10.96 9.90 11.37 14.63 8.32 6.66 4.96 3.65 2.70 2.24 1.86 2.29 2.67 0.74 -0.77 -0.64 -0.40 1.23 2.82 2.12 1.08 0.13 -0.47 -0.07 0.74 1.67 2.38 3.12 2.37 1.59 -1.19 -3.08
9.36 10.60 11.09 10.99 11.39 11.77 10.78 10.52 9.97 9.10 7.90 7.07 6.58 5.93 5.11 3.98 3.04 1.60 0.16 -1.11 -1.90 -2.09 -1.93 -2.43 -2.19 -3.14 -4.08 -4.44 -4.43 -3.96 -1.91 -5.21 -7.48 -8.85 -6.26 -7.93 -8.00 -7.24 -9.01 -9.14 -10.70 -13.27 -12.49
7.50 7.93 8.26 8.06 8.01 7.41 7.05 6.32 6.10 5.75 4.90 3.91 3.15 2.74 2.16 0.66 -1.09 -2.23 -3.54 -5.11 -4.49 -8.03 -6.77 -5.46 -3.84 -5.81 -7.35 -7.50 -10.27 -14.21 -13.69 -17.68 -20.33 -17.91 -16.28 -15.88 -18.11 -19.45 -19.09 -20.49 -18.15 -17.66 -15.30
4.81 4.95 4.88 4.77 4.49 4.42 4.31 3.82 3.37 2.76 2.22 2.12 1.08 0.77 -0.66 -1.59 -3.28 -6.23 -6.13 -5.60 -5.05 -4.88 -4.53 -5.19 -7.87 -10.33 -13.03 -16.23 -17.52 -19.10 -17.60 -12.20 -21.03 -20.37 -24.01 -21.07 -21.41 -23.53 -23.24 -21.23 -19.55 -15.99 -12.53
2.07 2.14 1.99 2.17 1.82 1.89 1.78 1.54 0.55 -0.12 -1.03 -2.20 -3.44 -5.00 -7.03 -7.15 -6.04 -9.02 -11.42 -11.56 -12.50 -12.37 -12.84 -14.70 -16.46 -16.58 -18.17 -17.12 -18.40 -12.93 -9.25 -1.53 -11.01 -13.82 -21.47 -19.82 -20.56 -23.06 -22.39 -20.09 -18.01 -14.65 -11.59
MSLP
1019.91 1019.44 1019.17 1018.95 1018.76 1018.70 1018.70 1018.36 1018.19 1018.03 1017.97 1017.97 1017.86 1017.75 1017.79 1017.69 1017.70 1017.70 1017.60 1017.53 1017.36 1017.40 1017.39 1017.37 1017.38 1017.75 1017.86 1018.05 1018.34 1018.58 1018.83 1019.28 1018.81 1018.27 1019.36 1019.97 1020.49 1020.85 1021.44 1022.11 1022.44 1022.72 1023.77
1020.82 1020.15 1019.84 1019.51 1019.00 1018.66 1018.52 1018.36 1018.07 1017.86 1017.70 1017.53 1017.45 1017.46 1017.35 1017.23 1017.04 1017.07 1016.91 1016.79 1016.62 1016.54 1016.54 1016.61 1016.48 1016.84 1016.91 1017.04 1017.29 1017.47 1017.81 1018.00 1018.31 1017.89 1018.84 1019.46 1019.71 1020.08 1020.48 1021.06 1021.72 1022.15 1023.18
1021.00 1020.57 1020.32 1019.92 1019.47 1019.11 1018.68 1018.31 1017.92 1017.70 1017.43 1017.32 1017.20 1017.12 1016.88 1016.70 1016.68 1016.58 1016.27 1015.90 1015.61 1015.43 1015.37 1015.35 1015.39 1015.80 1015.83 1015.85 1016.15 1016.44 1016.87 1016.99 1017.24 1017.29 1017.99 1018.72 1019.13 1019.39 1019.99 1020.56 1021.16 1021.61 1022.30
1021.24 1021.11 1020.97 1020.61 1020.22 1019.72 1019.15 1018.63 1018.18 1017.76 1017.37 1016.84 1016.68 1016.44 1016.32 1016.05 1015.83 1015.69 1015.57 1015.34 1014.98 1014.71 1014.61 1014.63 1014.69 1014.70 1014.74 1014.94 1015.12 1015.12 1015.58 1015.82 1016.03 1016.41 1017.07 1017.69 1018.12 1018.53 1019.19 1019.76 1020.51 1020.97 1021.73
1021.49 1021.31 1021.09 1020.77 1020.46 1020.02 1019.47 1018.92 1018.32 1017.80 1017.33 1016.90 1016.43 1015.88 1015.69 1015.57 1015.31 1015.12 1014.90 1014.62 1014.40 1014.12 1014.04 1013.97 1014.00 1013.88 1013.97 1014.02 1014.24 1014.13 1014.61 1015.04 1015.33 1015.49 1015.94 1016.46 1016.98 1017.75 1017.63 1018.50 1019.68 1020.58 1021.51
1021.42 1021.24 1021.01 1020.68 1020.32 1019.95 1019.45 1018.97 1018.42 1017.79 1017.36 1016.84 1016.47 1015.98 1015.52 1015.01 1014.68 1014.52 1014.44 1014.16 1013.86 1013.61 1013.32 1013.18 1013.34 1013.41 1013.42 1013.37 1013.48 1013.39 1013.60 1013.83 1014.17 1014.51 1014.88 1015.01 1015.38 1016.05 1016.85 1017.66 1018.56 1019.73 1020.87
1021.77 1021.39 1021.09 1020.68 1020.20 1019.63 1019.27 1018.80 1018.18 1017.66 1017.19 1016.68 1016.06 1015.66 1015.22 1014.87 1014.45 1013.98 1013.80 1013.49 1013.19 1013.04 1013.03 1013.05 1012.85 1012.82 1012.72 1012.73 1012.68 1012.72 1012.91 1012.60 1012.44 1013.05 1013.21 1013.60 1014.55 1015.06 1015.67 1016.81 1017.48 1018.04 1018.73
1021.81 1021.44 1021.12 1020.81 1020.43 1019.86 1019.34 1018.91 1018.37 1017.81 1017.32 1016.69 1016.05 1015.64 1015.14 1014.55 1013.94 1013.58 1013.41 1013.11 1012.82 1012.68 1012.53 1012.56 1012.43 1012.37 1012.41 1012.18 1012.09 1012.18 1011.97 1012.15 1012.24 1012.15 1012.67 1013.02 1013.16 1014.39 1014.56 1015.19 1016.33 1017.48 1018.90
1021.83 1021.52 1021.24 1021.04 1020.56 1020.01 1019.48 1018.89 1018.38 1017.77 1017.19 1016.65 1016.25 1015.64 1015.04 1014.38 1013.85 1013.13 1012.71 1012.75 1012.46 1012.33 1012.29 1012.05 1011.89 1011.59 1011.50 1011.27 1011.88 1011.60 1011.48 1011.67 1011.58 1011.88 1012.34 1013.03 1012.94 1014.00 1014.48 1015.18 1016.81 1017.60 1019.00
1022.03 1021.63 1021.33 1021.08 1020.66 1020.05 1019.49 1018.95 1018.33 1017.98 1017.09 1016.49 1015.90 1015.46 1014.81 1014.24 1013.58 1012.93 1012.56 1012.36 1012.08 1012.06 1011.92 1011.65 1011.25 1011.31 1011.42 1010.94 1010.96 1011.25 1011.25 1011.37 1011.59 1011.92 1012.52 1013.10 1013.25 1013.74 1014.00 1014.89 1015.55 1016.69 1018.29
1021.92 1021.47 1021.07 1020.68 1020.24 1019.70 1018.99 1018.55 1018.05 1017.58 1016.93 1016.35 1015.68 1015.05 1014.53 1013.81 1013.22 1012.66 1012.14 1011.84 1011.60 1011.68 1011.39 1011.37 1011.04 1010.93 1011.12 1010.72 1010.45 1010.76 1010.90 1011.41 1011.60 1011.80 1012.45 1013.12 1013.78 1014.27 1014.84 1015.33 1015.87 1016.44 1017.63
1021.86 1021.36 1020.86 1020.35 1019.95 1019.37 1018.91 1018.16 1017.71 1017.17 1016.50 1015.94 1015.38 1014.70 1014.22 1013.57 1012.95 1012.38 1011.85 1011.45 1011.17 1011.05 1010.95 1011.16 1011.04 1010.93 1010.73 1010.48 1009.91 1010.52 1010.87 1011.53 1011.82 1012.08 1012.60 1013.36 1013.79 1014.18 1014.83 1015.74 1016.17 1016.65 1017.55
1021.83 1021.23 1020.55 1019.90 1019.50 1018.97 1018.65 1017.95 1017.31 1016.65 1016.07 1015.31 1014.85 1014.22 1013.75 1013.41 1012.75 1012.15 1011.68 1011.05 1010.83 1010.92 1010.86 1011.04 1011.01 1010.83 1010.50 1010.20 1009.91 1010.55 1010.95 1011.55 1011.92 1012.19 1013.02 1013.57 1013.93 1014.72 1015.45 1016.26 1017.11 1017.63 1018.27
1022.05 1021.30 1020.52 1019.84 1018.96 1018.18 1017.92 1017.39 1016.74 1016.33 1015.69 1014.92 1014.45 1014.09 1013.50 1013.17 1012.77 1012.06 1011.42 1010.98 1010.80 1011.09 1011.07 1011.05 1010.94 1010.63 1010.32 1010.11 1010.33 1010.86 1011.48 1011.92 1012.06 1012.48 1013.12 1013.90 1014.54 1015.21 1015.87 1016.50 1017.73 1018.47 1019.15
1022.00 1021.13 1020.30 1019.52 1018.60 1017.60 1016.92 1016.68 1016.15 1015.56 1015.13 1014.30 1013.82 1013.48 1013.17 1012.96 1012.39 1011.85 1011.27 1011.30 1011.36 1011.33 1011.21 1011.20 1010.94 1010.69 1010.49 1010.43 1010.75 1011.45 1011.97 1012.21 1012.44 1012.89 1013.42 1014.26 1014.99 1015.56 1016.31 1017.02 1017.81 1018.66 1019.21
1022.10 1021.00 1020.15 1019.23 1018.18 1017.25 1016.39 1015.44 1015.04 1014.53 1014.01 1013.49 1013.07 1012.76 1012.55 1012.43 1011.96 1011.71 1011.32 1011.31 1011.35 1011.62 1011.43 1011.61 1011.59 1011.08 1011.15 1011.18 1011.44 1011.99 1012.41 1012.55 1012.88 1013.25 1013.80 1014.50 1015.17 1015.90 1016.56 1017.24 1017.84 1018.52 1019.23
1022.26 1020.97 1019.88 1018.93 1017.96 1016.97 1015.91 1015.29 1014.58 1014.09 1013.83 1013.54 1013.19 1012.71 1012.22 1012.10 1011.87 1011.64 1011.51 1011.65 1011.57 1011.69 1011.77 1011.80 1012.10 1012.05 1012.14 1012.16 1012.20 1012.53 1012.95 1013.04 1013.15 1013.56 1014.18 1014.85 1015.51 1016.20 1016.79 1017.28 1017.74 1018.45 1019.25
1021.76 1020.71 1019.59 1018.41 1017.45 1016.34 1015.33 1014.70 1014.27 1014.43 1014.25 1013.85 1013.48 1013.13 1012.35 1012.11 1011.86 1011.92 1011.84 1011.85 1012.02 1012.12 1012.44 1012.62 1012.85 1012.92 1013.08 1013.13 1013.17 1013.42 1013.82 1013.95 1014.09 1014.36 1014.80 1015.31 1015.87 1016.41 1016.97 1017.37 1017.72 1018.36 1019.10
1021.12 1019.97 1018.86 1017.71 1016.63 1015.59 1014.73 1014.21 1014.04 1014.28 1014.39 1014.22 1013.91 1013.53 1013.38 1012.97 1012.86 1012.86 1012.86 1013.08 1013.47 1013.65 1013.89 1013.97 1014.09 1014.25 1014.31 1014.25 1014.19 1014.42 1014.74 1015.02 1015.18 1015.49 1015.91 1016.22 1016.53 1016.87 1017.26 1017.49 1017.88 1018.43 1019.01
1020.24 1019.12 1018.02 1017.01 1015.92 1014.92 1014.24 1014.12 1014.26 1014.62 1014.73 1014.69 1014.51 1014.32 1014.05 1013.88 1014.31 1014.80 1015.04 1015.05 1015.23 1015.58 1015.72 1015.67 1015.79 1015.89 1015.90 1015.75 1015.65 1015.77 1016.01 1016.16 1016.38 1016.60 1016.90 1016.99 1017.21 1017.21 1017.59 1018.01 1018.39 1018.94 1019.43
1019.71 1018.40 1017.38 1016.52 1015.77 1015.04 1014.52 1014.54 1014.83 1015.20 1015.56 1015.76 1015.57 1015.14 1015.11 1015.35 1016.08 1016.44 1016.75 1017.04 1017.30 1017.40 1017.30 1017.32 1017.54 1017.42 1017.21 1017.11 1017.10 1017.00 1017.09 1017.39 1017.56 1017.67 1017.78 1017.91 1018.03 1018.36 1018.48 1018.60 1019.05 1019.53 1020.01
1019.25 1018.30 1017.38 1016.78 1016.31 1015.88 1015.69 1015.69 1015.98 1016.23 1016.54 1016.86 1017.01 1016.97 1016.83 1017.06 1017.51 1017.90 1018.30 1018.60 1018.79 1018.80 1018.71 1018.61 1018.81 1018.92 1018.79 1018.60 1018.41 1018.19 1018.34 1018.61 1018.68 1018.83 1018.90 1018.96 1019.00 1019.17 1019.37 1019.68 1020.14 1020.41 1020.71
1019.30 1018.58 1017.91 1017.47 1017.21 1016.86 1016.99 1017.26 1017.27 1017.45 1017.84 1018.12 1018.23 1018.28 1018.36 1018.63 1018.90 1019.21 1019.48 1019.57 1019.61 1019.59 1019.51 1019.35 1019.34 1019.43 1019.46 1019.39 1019.28 1019.19 1019.31 1019.62 1019.72 1019.80 1019.76 1019.91 1019.94 1020.01 1020.22 1020.80 1021.05 1021.19 1021.27
1019.92 1019.34 1018.78 1018.56 1018.10 1018.04 1018.30 1018.57 1018.71 1018.80 1019.06 1019.33 1019.42 1019.49 1019.64 1019.83 1020.00 1020.16 1020.22 1020.13 1020.09 1020.15 1019.97 1019.86 1019.82 1019.93 1019.93 1019.87 1019.89 1019.95 1020.03 1020.15 1020.17 1020.23 1020.29 1020.44 1020.49 1020.68 1020.83 1021.16 1021.45 1021.64 1021.52
1020.85 1020.38 1019.90 1019.80 1019.35 1019.28 1019.66 1019.78 1019.91 1020.04 1020.20 1020.37 1020.54 1020.64 1020.85 1020.91 1020.90 1020.87 1020.74 1020.71 1020.64 1020.41 1020.07 1020.08 1020.14 1020.23 1020.33 1020.27 1020.16 1020.09 1020.02 1019.96 1020.03 1020.15 1020.42 1020.64 1020.79 1020.78 1021.00 1021.23 1021.46 1021.57 1021.55
1021.77 1021.35 1021.12 1021.00 1020.69 1020.70 1020.84 1020.87 1020.94 1021.03 1021.16 1021.33 1021.51 1021.60 1021.67 1021.65 1021.55 1021.43 1021.28 1021.11 1020.96 1020.85 1020.69 1020.59 1020.41 1020.32 1020.25 1020.09 1019.98 1019.82 1019.67 1019.54 1019.68 1019.83 1020.09 1020.38 1020.70 1020.77 1020.95 1021.06 1021.22 1021.41 1021.50
Wind_Speed
10 8 7 7 7 6 5 5 6 5 6 7 7 7 8 8 8 11 13 12 13 12 11 11 14 13 10 10 8 10 11 11 14 8 3 5 10 12 11 12 13 13 12
10 9 7 6 6 5 6 6 6 7 6 7 7 7 8 9 10 11 13 13 14 15 15 15 15 10 14 13 9 13 12 11 10 17 3 5 8 13 11 13 10 10 10
7 8 10 12 13 12 10 8 6 6 6 6 6 7 8 10 10 12 16 14 14 15 14 13 15 12 13 10 11 10 10 10 11 11 4 3 3 8 9 10 11 10 9
6 6 7 8 8 8 9 10 9 8 7 6 6 7 7 8 10 12 12 14 14 13 13 13 12 13 15 13 12 12 11 10 10 9 5 4 3 7 9 10 9 8 9
6 6 6 6 6 7 8 8 8 7 8 7 8 7 7 7 7 10 11 13 13 13 12 11 12 12 14 15 10 10 10 10 8 9 8 5 6 6 14 9 8 6 5
10 9 8 6 6 6 6 7 7 7 7 6 7 7 9 7 12 15 16 11 10 11 12 9 8 9 11 16 18 19 15 12 13 10 10 10 12 9 9 10 9 9 7
8 9 8 9 10 10 9 10 10 9 8 8 7 7 9 8 15 17 18 11 10 9 9 8 6 6 9 9 14 18 20 24 22 13 12 12 8 11 12 12 10 10 6
9 8 7 9 11 10 9 9 9 8 9 9 9 8 9 7 15 16 15 9 9 9 8 8 9 8 8 9 9 10 11 11 14 11 10 7 9 13 15 12 12 8 7
9 9 9 9 11 11 11 10 9 9 8 8 6 8 8 8 15 15 11 5 8 9 7 8 9 9 12 16 9 10 9 8 8 12 11 15 17 21 14 10 8 9 3
8 10 9 9 9 10 10 10 5 7 9 7 8 6 7 8 14 14 11 4 7 6 4 6 11 11 13 15 10 9 8 6 7 7 6 9 12 15 20 10 11 11 5
7 10 9 8 8 9 8 3 7 8 7 6 9 6 7 6 7 14 13 5 5 6 5 4 3 12 16 15 15 7 6 6 9 7 6 6 6 7 6 5 7 8 5
9 11 11 10 8 8 7 8 6 6 8 9 9 7 5 6 9 11 13 13 11 6 4 2 4 11 14 15 8 8 10 10 5 6 7 6 6 6 6 5 6 6 3
11 13 14 13 10 8 8 9 6 4 6 8 6 6 6 5 5 12 12 10 11 2 1 4 9 10 11 8 7 11 9 4 5 7 6 4 3 5 7 6 8 9 8
10 10 11 13 14 11 5 6 6 5 5 6 6 5 5 5 4 4 3 4 5 2 1 2 5 7 7 2 3 6 4 4 5 5 5 5 5 4 3 3 3 3 3
9 9 10 9 10 12 11 7 7 6 6 4 4 5 5 5 4 8 6 1 2 1 2 2 2 2 1 3 6 5 4 4 3 3 5 4 4 3 2 3 3 3 3
11 9 8 9 9 9 11 10 11 14 15 13 12 7 3 9 10 7 1 4 4 4 2 2 3 2 4 4 5 4 3 4 3 4 5 4 3 3 3 3 2 3 3
10 11 9 10 9 10 10 8 6 5 6 6 8 10 6 5 2 4 3 5 6 4 2 3 2 4 3 3 3 3 2 2 3 4 4 4 4 3 5 4 3 3 2
9 13 9 9 9 10 9 7 4 2 2 3 5 9 9 9 6 2 4 4 3 4 3 3 3 3 3 3 3 3 3 3 3 3 3 2 3 3 3 3 4 4 3
9 8 9 9 9 11 8 4 2 2 0 1 2 4 8 11 16 18 17 6 4 6 5 6 5 5 5 5 5 5 4 3 3 3 3 2 2 2 2 2 3 5 5
9 13 12 9 9 8 3 2 3 2 2 3 3 3 3 4 6 6 7 7 7 6 5 6 6 6 6 5 5 4 4 5 4 3 3 3 2 2 3 3 3 3 2
8 9 10 7 5 4 2 3 3 4 4 4 5 7 13 7 6 7 6 7 6 6 6 6 5 5 5 5 5 5 5 4 4 3 3 3 3 3 2 3 3 3 3
7 6 5 4 4 5 5 5 5 5 5 5 4 8 15 7 6 6 6 6 5 5 4 4 4 4 4 4 4 4 4 4 4 3 3 3 3 3 2 2 2 2 2
6 5 4 4 4 6 6 6 6 6 6 5 5 5 6 6 5 5 4 3 3 3 3 3 3 3 3 4 4 4 4 3 2 2 2 2 2 2 2 2 2 2 2
6 5 5 4 5 6 6 6 6 8 6 5 5 5 5 4 4 4 3 2 2 2 3 3 3 4 3 3 3 3 2 1 1 1 3 3 2 2 2 2 2 2 2
6 6 6 5 6 6 5 5 5 5 5 4 4 4 3 3 3 2 2 2 2 3 3 3 2 3 2 3 3 3 3 3 2 3 2 4 4 4 3 2 2 1 2
6 6 6 5 5 5 4 4 4 4 3 3 3 2 2 2 2 2 3 3 3 3 4 2 3 4 4 3 4 5 4 4 4 6 4 4 4 2 2 3 3 2 3
Wind_Direction
5 358 360 354 343 326 296 287 268 264 241 240 235 232 234 233 229 237 243 243 241 241 233 225 228 226 231 228 215 218 221 222 249 252 178 174 194 197 196 199 196 186 196
348 353 351 337 342 345 328 312 300 279 271 252 248 241 238 234 228 225 237 238 241 244 243 244 246 231 233 232 219 219 223 221 235 257 160 181 193 198 190 190 189 183 183
348 359 356 357 354 349 341 330 316 298 282 276 256 247 242 239 246 249 252 248 243 242 239 233 235 224 232 228 227 220 222 223 226 242 200 171 169 186 184 188 191 185 178
353 352 352 346 338 333 330 332 330 321 301 290 271 261 254 250 241 249 251 254 255 249 243 239 233 227 230 228 229 228 222 218 214 218 191 180 174 177 183 182 186 185 178
345 342 339 319 316 319 323 321 316 316 311 299 294 282 263 255 251 247 248 252 253 253 247 241 240 237 232 233 232 233 213 213 209 212 211 190 177 171 191 176 182 164 162
343 335 328 327 321 315 314 315 307 303 298 294 293 286 289 276 268 257 265 256 251 249 251 242 234 237 244 245 243 237 210 206 217 213 221 217 207 189 172 171 161 157 177
331 327 329 332 331 330 325 324 322 320 313 307 302 295 292 284 285 277 267 258 254 249 249 249 239 222 225 240 248 246 238 225 221 214 221 211 191 178 162 168 177 177 167
322 322 327 331 325 320 318 314 313 311 310 311 310 306 300 292 294 295 287 268 259 250 241 242 250 246 220 227 240 244 239 233 230 228 226 201 180 176 176 176 166 149 97
325 323 323 323 318 319 316 315 308 303 310 304 297 300 299 299 301 302 299 263 262 263 249 242 242 247 222 231 237 244 240 231 225 217 168 178 172 174 159 136 148 145 109
306 310 307 302 297 302 303 308 294 295 294 297 297 280 277 289 305 307 303 267 273 275 246 249 245 253 249 239 238 229 230 197 158 149 150 163 160 163 160 166 158 163 129
304 305 299 291 282 281 285 269 295 297 289 294 294 290 290 274 286 302 301 285 268 274 253 254 243 264 260 251 248 214 215 159 174 146 136 134 143 152 147 134 153 150 135
312 309 303 300 291 294 285 291 276 285 295 302 296 290 279 291 296 300 299 291 289 249 247 257 262 276 273 265 255 218 185 168 143 130 128 132 132 131 119 116 117 103 105
310 307 308 306 301 284 287 293 295 262 281 290 283 296 301 299 293 308 309 306 295 188 153 260 278 281 290 294 269 181 159 133 139 132 137 133 115 105 105 86 73 81 67
297 294 299 302 305 302 273 279 279 276 275 280 290 292 299 299 293 293 303 310 121 95 314 317 317 318 299 255 162 146 121 130 135 134 118 93 98 115 106 101 97 122 89
296 294 291 287 290 299 294 279 277 259 241 257 256 262 289 299 279 315 325 55 64 70 33 356 351 354 12 95 92 100 109 128 122 110 116 112 110 109 99 114 100 127 118
306 301 296 297 294 291 291 292 278 291 290 288 295 297 259 259 295 309 357 139 137 100 52 41 358 17 63 78 96 99 101 104 90 105 109 117 120 140 133 131 118 151 157
288 295 293 289 287 287 283 273 288 310 312 3 4 340 283 289 313 0 122 130 119 68 54 63 57 41 45 61 81 77 98 82 101 102 113 128 130 150 155 167 141 133 135
279 280 279 279 276 277 272 265 244 234 274 308 336 3 29 54 54 123 126 98 98 37 45 40 38 46 32 53 61 56 49 47 54 72 86 118 147 143 148 162 159 143 140
291 286 281 279 275 273 269 239 164 139 124 334 330 357 6 50 60 50 54 57 56 44 38 49 39 34 34 37 45 57 64 64 68 84 83 99 113 123 101 111 124 141 136
288 278 279 284 283 280 243 147 112 98 58 28 18 356 347 38 45 41 37 40 46 41 31 41 34 33 30 33 41 42 51 47 53 62 65 74 77 72 98 126 131 132 137
291 294 294 294 302 312 20 89 89 84 68 42 17 43 64 72 63 52 47 41 35 30 30 36 28 30 33 34 34 42 53 48 44 46 51 56 48 65 52 74 102 95 109
297 301 320 342 350 18 30 49 59 67 60 51 35 33 56 56 58 58 53 45 36 34 25 44 48 37 30 37 21 47 54 52 44 39 47 56 69 77 93 91 97 117 125
319 326 356 15 24 44 49 41 53 58 55 46 40 44 43 50 57 58 59 46 40 38 26 38 48 45 30 29 34 35 52 40 20 30 82 81 92 106 98 121 131 101 146
345 356 19 23 44 52 49 49 50 53 56 48 42 43 47 44 43 45 33 12 30 22 32 37 44 42 21 33 27 37 40 43 60 90 129 134 136 115 104 103 150 152 160
8 11 29 24 40 51 48 49 51 49 49 48 45 40 26 20 29 16 9 354 358 10 22 21 24 26 18 354 349 328 303 15 147 152 115 118 136 146 134 135 156 167 139
18 23 24 19 33 37 37 43 47 43 42 42 36 27 10 350 342 344 342 350 352 341 334 330 336 337 324 308 293 287 279 264 212 190 163 140 140 154 160 175 178 167 179